198  
AXUS43 KGID 251102  
MISGRI  
 
GID CWA HOURLY WEATHER ROUNDUP  
NATIONAL WEATHER SERVICE HASTINGS NE  
600 AM CDT SAT OCT 25 2014  
 
NOTE: "FAIR" INDICATES FEW OR NO CLOUDS BELOW 12,000 FEET WITH NO  
SIGNIFICANT WEATHER AND/OR OBSTRUCTIONS TO VISIBILITY.  
   
..SOUTH CENTRAL NEBRASKA
 
 
 
CITY SKY/WX TMP DP RH WIND PRES REMARKS  
GRAND ISLAND CLEAR 42 39 89 CALM 30.08R  
HASTINGS CLEAR 43 40 89 N5 30.06S  
KEARNEY CLEAR 45 39 81 NW8 30.08R  
ORD CLEAR 41 38 89 NW6 30.09S  
YORK CLEAR 45 43 93 N8 30.07R  
AURORA CLEAR 45 42 89 N3 30.08R  
LEXINGTON CLEAR 39 37 91 NW5 30.08R  
HOLDREGE CLEAR 42 40 91 CALM 30.07R  
HEBRON CLEAR 44 42 93 CALM 30.05S FOG  
   
..NEBRASKA PANHANDLE
 
 
 
CITY SKY/WX TMP DP RH WIND PRES REMARKS  
CHADRON CLEAR 31 29 92 W5 30.17S WCI 26  
ALLIANCE CLEAR 37 33 85 N7 30.15S WCI 32  
SCOTTSBLUFF CLEAR 45 32 60 N8 30.16R  
SIDNEY CLEAR 40 30 67 NW9 30.14F WCI 34  
   
..WESTERN AND NORTH CENTRAL NEBRASKA
 
 
 
CITY SKY/WX TMP DP RH WIND PRES REMARKS  
VALENTINE CLEAR 45 33 63 N3 30.13S  
AINSWORTH CLEAR 42 34 73 E3 30.13R  
ONEILL CLEAR 49 39 68 N8 30.13R  
BROKEN BOW CLEAR 47 41 80 N9 30.09R  
IMPERIAL CLEAR 43 33 68 NW5 30.10R  
NORTH PLATTE CLEAR 35 32 88 NW3 30.09R  
MCCOOK CLEAR 40 35 83 SW6 30.08R  
   
..EASTERN NEBRASKA
 
 
 
CITY SKY/WX TMP DP RH WIND PRES REMARKS  
NORFOLK CLEAR 46 40 79 W7 30.08R  
SO SIOUX CITY CLEAR 43 40 89 W3 30.08R  
TEKAMAH CLEAR 44 41 89 N8 30.06R  
COLUMBUS CLEAR 43 37 81 CALM 30.08S  
ALBION CLEAR 42 38 84 NW7 30.09S  
OMAHA EPPLEY CLEAR 50 47 89 N9 30.05R  
OFFUTT AFB CLEAR 47 47 100 W3 30.04R  
MILLARD CLEAR 48 46 94 CALM 30.05R  
LINCOLN CLEAR 46 43 89 NW3 30.07R  
NEBRASKA CITY CLEAR 52 46 79 NW3 30.05R  
BEATRICE CLEAR 43 42 95 CALM 30.05R  
FALLS CITY FOG 50 49 96 NW5 30.03R VSB 1  
   
..NORTHERN KANSAS
 
 
 
CITY SKY/WX TMP DP RH WIND PRES REMARKS  
GOODLAND CLEAR 45 34 65 W6 30.12S  
HILL CITY CLEAR 45 40 82 CALM 30.06R  
NORTON SUNNY 39 32 75 W5 30.05S  
PHILLIPSBURG CLEAR 46 46 100 NW5 30.05S  
SMITH CENTER CLEAR 48 45 87 CALM 30.05S  
BELOIT CLEAR 46 46 100 CALM 30.03R  
HAYS CLEAR 48 43 81 W5 30.05S  
RUSSELL CLEAR 50 49 96 S5 30.03S  
CONCORDIA CLEAR 51 50 96 SE3 30.04R  
SALINA FOG 56 54 93 S3 30.03S VSB 3/4  
TOPEKA FOG 53 53 100 CALM 30.04R VSB 1/4  
 
CLICK HERE TO GO TO PREVIOUS BULLETINS.

The Nexlab NE Page
The Nexlab KS Page Main Text Page